Weather History for Red Oak, IA

Change the Weather History Date:

Sunday, January 19, 2014

  Actual Average Record
Temperature  
Mean Temperature 37 °F -  
Max Temperature 60 °F 34 °F 60 °F (2014)
Min Temperature 14 °F 11 °F -15 °F (1970)
Degree Days  
Heating Degree Days 28    
Moisture  
Dew Point 21 °F    
Average Humidity 59    
Maximum Humidity 93    
Minimum Humidity 23    
Precipitation  
Precipitation 0.00 in - - ()
Sea Level Pressure  
Sea Level Pressure 29.82 in    
Wind  
Wind Speed 9 mph (SW)    
Max Wind Speed 18 mph    
Max Gust Speed 24 mph    
Visibility 10 miles    
Events Rain    
Averages and records for this station are not official NWS values.
T = Trace of Precipitation, MM = Missing Value Source: NWS Daily Summary

Daily Weather History Graph

Daily Weather History Graph

Search for Another Location

Airport:

Trip Planner

Search our weather history database for the weather conditions in past years. The results will help you decide how hot, cold, wet, or windy it might be!

Date:

Astronomy

Jan. 19, 2014 Rise Set
Actual Time 7:41 AM CST 5:22 PM CST
Civil Twilight 7:11 AM CST 5:52 PM CST
Nautical Twilight 6:38 AM CST 6:25 PM CST
Astronomical Twilight 6:05 AM CST 6:58 PM CST
Moon 9:03 PM CST (1/19) 9:10 AM CST (1/19)
Length of Visible Light 10h 40m
Length of Day
9h 40m
Waning Gibbous, 89% of the Moon is Illuminated
Jan 19
Waning Gibbous
Jan 23
Last Quarter
Jan 30
New
Feb 6
First Quarter
Feb 14
Full

Hourly Weather History & Observations

Time (CST) Temp. Windchill Dew Point Humidity Pressure Visibility Wind Dir Wind Speed Gust Speed Precip Events Conditions
12:15 AM 17.6 °F 9.3 °F 14.0 °F 86% 30.03 in 10.0 mi South 5.8 mph - N/A   Overcast
12:35 AM 17.6 °F 10.7 °F 14.0 °F 86% 30.03 in 10.0 mi South 4.6 mph - N/A   Overcast
12:55 AM 15.8 °F 7.2 °F 14.0 °F 93% 30.02 in 10.0 mi SSW 5.8 mph - N/A   Partly Cloudy
1:15 AM 15.8 °F 7.2 °F 12.2 °F 86% 30.00 in 10.0 mi SSW 5.8 mph - N/A   Clear
1:35 AM 14.0 °F 6.5 °F 12.2 °F 93% 30.00 in 10.0 mi South 4.6 mph - N/A   Partly Cloudy
1:55 AM 15.8 °F 2.7 °F 12.2 °F 86% 29.96 in 10.0 mi SW 11.5 mph - N/A   Clear
2:15 AM 21.2 °F 9.5 °F 17.6 °F 86% 29.94 in 10.0 mi SW 11.5 mph 24.2 mph N/A   Clear
2:35 AM 21.2 °F 12.6 °F 17.6 °F 86% 29.95 in 10.0 mi South 6.9 mph - N/A   Clear
2:55 AM 19.4 °F 9.5 °F 15.8 °F 86% 29.97 in 10.0 mi South 8.1 mph - N/A   Clear
3:15 AM 21.2 °F 12.6 °F 17.6 °F 86% 29.96 in 10.0 mi SSW 6.9 mph - N/A   Clear
3:35 AM 19.4 °F 11.5 °F 15.8 °F 86% 29.95 in 10.0 mi SSW 5.8 mph - N/A   Clear
3:55 AM 17.6 °F 7.3 °F 15.8 °F 93% 29.94 in 10.0 mi SSW 8.1 mph - N/A   Clear
4:15 AM 19.4 °F 8.6 °F 17.6 °F 93% 29.92 in 10.0 mi SSW 9.2 mph - N/A   Clear
4:35 AM 19.4 °F 9.5 °F 15.8 °F 86% 29.92 in 10.0 mi SSW 8.1 mph - N/A   Clear
4:55 AM 19.4 °F 9.5 °F 17.6 °F 93% 29.91 in 10.0 mi South 8.1 mph - N/A   Clear
5:15 AM 19.4 °F 9.5 °F 17.6 °F 93% 29.90 in - South 8.1 mph - N/A   Unknown
5:35 AM 19.4 °F 10.4 °F 17.6 °F 93% 29.90 in 10.0 mi South 6.9 mph - N/A   Clear
5:55 AM 17.6 °F 8.2 °F 15.8 °F 93% 29.88 in 10.0 mi South 6.9 mph - N/A   Clear
6:15 AM 17.6 °F 8.2 °F 15.8 °F 93% 29.88 in 10.0 mi South 6.9 mph - N/A   Clear
6:35 AM 15.8 °F 5.1 °F 14.0 °F 93% 29.87 in 10.0 mi South 8.1 mph - N/A   Clear
6:55 AM 19.4 °F 9.5 °F 17.6 °F 93% 29.86 in 10.0 mi South 8.1 mph - N/A   Clear
7:15 AM 21.2 °F 10.1 °F 19.4 °F 93% 29.85 in 10.0 mi South 10.4 mph - N/A   Clear
7:35 AM 21.2 °F 14.9 °F 17.6 °F 86% 29.85 in 10.0 mi South 4.6 mph - N/A   Clear
7:55 AM 21.2 °F 12.6 °F 17.6 °F 86% 29.84 in 10.0 mi SSW 6.9 mph - N/A   Clear
8:15 AM 23.0 °F 14.7 °F 19.4 °F 86% 29.83 in 10.0 mi SSW 6.9 mph - N/A   Clear
8:35 AM 23.0 °F 14.7 °F 21.2 °F 93% 29.83 in 10.0 mi South 6.9 mph - N/A   Clear
8:55 AM 28.4 °F 20.4 °F 23.0 °F 80% 29.82 in 10.0 mi South 8.1 mph - N/A   Clear
9:15 AM 30.2 °F 23.4 °F 24.8 °F 80% 29.82 in 10.0 mi SSW 6.9 mph - N/A   Clear
9:35 AM 33.8 °F 26.4 °F 26.6 °F 75% 29.81 in 10.0 mi SSW 9.2 mph - N/A   Clear
9:55 AM 39.2 °F 32.0 °F 24.8 °F 56% 29.81 in 10.0 mi SW 11.5 mph - N/A   Clear
10:15 AM 41.0 °F 35.2 °F 24.8 °F 53% 29.81 in 10.0 mi WSW 9.2 mph - N/A   Clear
10:35 AM 42.8 °F 35.8 °F 24.8 °F 49% 29.81 in 10.0 mi WSW 13.8 mph - N/A   Clear
10:55 AM 44.6 °F 38.4 °F 23.0 °F 43% 29.80 in 10.0 mi WSW 12.7 mph - N/A   Clear
11:15 AM 46.4 °F 40.4 °F 23.0 °F 40% 29.79 in 10.0 mi WSW 13.8 mph 19.6 mph N/A   Clear
11:35 AM 48.2 °F - 23.0 °F 37% 29.77 in 10.0 mi WSW 12.7 mph - N/A   Clear
11:55 AM 48.2 °F - 23.0 °F 37% 29.76 in 10.0 mi WSW 12.7 mph 18.4 mph N/A   Clear
12:15 PM 50.0 °F - 23.0 °F 35% 29.75 in 10.0 mi SW 17.3 mph - N/A   Clear
12:35 PM 50.0 °F - 23.0 °F 35% 29.74 in 10.0 mi WSW 17.3 mph 23.0 mph N/A   Clear
12:55 PM 51.8 °F - 23.0 °F 33% 29.73 in 10.0 mi WSW 15.0 mph 21.9 mph N/A   Clear
1:15 PM 53.6 °F - 23.0 °F 30% 29.71 in 10.0 mi SW 17.3 mph - N/A   Clear
1:35 PM 55.4 °F - 23.0 °F 29% 29.70 in 10.0 mi SW 17.3 mph - N/A   Clear
1:55 PM 57.2 °F - 23.0 °F 27% 29.69 in 10.0 mi WSW 17.3 mph - N/A   Clear
2:15 PM 57.2 °F - 23.0 °F 27% 29.68 in 10.0 mi WSW 17.3 mph - N/A   Clear
2:35 PM 57.2 °F - 23.0 °F 27% 29.68 in 10.0 mi SW 18.4 mph - N/A   Clear
2:55 PM 59.0 °F - 23.0 °F 25% 29.67 in 10.0 mi SW 18.4 mph - N/A   Clear
3:15 PM 59.0 °F - 24.8 °F 27% 29.67 in 10.0 mi SW 13.8 mph 20.7 mph N/A   Clear
3:35 PM 60.8 °F - 23.0 °F 23% 29.67 in 10.0 mi SW 13.8 mph 20.7 mph N/A   Clear
3:55 PM 60.8 °F - 23.0 °F 23% 29.67 in 10.0 mi WSW 15.0 mph - N/A   Clear
4:15 PM 60.8 °F - 23.0 °F 23% 29.67 in 10.0 mi WSW 12.7 mph - N/A   Clear
4:35 PM 60.8 °F - 23.0 °F 23% 29.67 in 10.0 mi WSW 13.8 mph - N/A   Clear
4:55 PM 57.2 °F - 23.0 °F 27% 29.69 in 10.0 mi SW 9.2 mph - N/A   Clear
5:15 PM 51.8 °F - 23.0 °F 33% 29.69 in 10.0 mi SW 6.9 mph - N/A   Clear
5:35 PM 48.2 °F - 23.0 °F 37% 29.70 in 10.0 mi West 4.6 mph - N/A   Clear
5:55 PM 48.2 °F - 23.0 °F 37% 29.70 in 10.0 mi WSW 8.1 mph - N/A   Clear
6:15 PM 46.4 °F 43.5 °F 23.0 °F 40% 29.71 in 10.0 mi WSW 5.8 mph - N/A   Clear
6:55 PM 48.2 °F - 21.2 °F 34% 29.74 in 10.0 mi WNW 9.2 mph - N/A   Mostly Cloudy
7:15 PM 51.8 °F - 21.2 °F 30% 29.75 in 10.0 mi NW 10.4 mph - N/A   Partly Cloudy
7:35 PM 50.0 °F - 23.0 °F 35% 29.77 in 10.0 mi WNW 8.1 mph 15.0 mph N/A   Clear
7:55 PM 48.2 °F - 23.0 °F 37% 29.78 in 10.0 mi NW 11.5 mph - N/A   Clear
8:15 PM 48.2 °F - 23.0 °F 37% 29.79 in 10.0 mi NNW 11.5 mph - N/A   Clear
8:35 PM 48.2 °F - 23.0 °F 37% 29.80 in 10.0 mi NNW 8.1 mph - N/A   Clear
8:55 PM 44.6 °F - 23.0 °F 43% 29.81 in 10.0 mi Calm Calm - N/A   Clear
9:15 PM 41.0 °F 39.0 °F 23.0 °F 49% 29.81 in 10.0 mi WNW 3.5 mph - N/A   Clear
9:35 PM 39.2 °F 35.0 °F 23.0 °F 52% 29.82 in 10.0 mi NW 5.8 mph - N/A   Clear
9:55 PM 35.6 °F 30.7 °F 21.2 °F 56% 29.82 in 10.0 mi WNW 5.8 mph - N/A   Clear
10:15 PM 39.2 °F 35.9 °F 23.0 °F 52% 29.83 in 10.0 mi NW 4.6 mph - N/A   Clear
10:35 PM 37.4 °F 32.8 °F 23.0 °F 56% 29.83 in 10.0 mi NW 5.8 mph - N/A   Light Drizzle
10:55 PM 37.4 °F 32.1 °F 24.8 °F 60% 29.85 in 10.0 mi NW 6.9 mph - N/A   Clear
11:15 PM 37.4 °F 32.1 °F 23.0 °F 56% 29.85 in 10.0 mi NW 6.9 mph - N/A Rain Light Rain
11:35 PM 35.6 °F 30.7 °F 23.0 °F 60% 29.85 in 10.0 mi NW 5.8 mph - N/A   Clear
11:55 PM 39.2 °F 33.6 °F 24.8 °F 56% 29.84 in 10.0 mi NNW 8.1 mph - N/A   Clear